Regional Weather Roundup
Issued by NWS Bismarck, ND

Home | Current Version | Previous Version | Text Only | Print | Product List | Glossary On
Versions: 1 2 3 4 5 6 7 8 9 10 11 12 13 14 15 16 17 18 19 20 21 22 23 24 25 26 27 28 29 30 31 32 33 34 35 36 37 38 39 40 41 42 43 44 45 46 47 48 49 50
000
ASUS43 KBIS 200610
RWRBIS

NWR BROADCAST TEXT
NATIONAL WEATHER SERVICE BISMARCK ND
100 AM CDT TUE OCT 20 2020

NOTE: "FAIR" INDICATES FEW OR NO CLOUDS BELOW 12,000 FEET WITH NO
SIGNIFICANT WEATHER AND/OR OBSTRUCTIONS TO VISIBILITY.


CITY           SKY/WX    TMP DP  RH WIND       PRES   REMARKS
WILLISTON      FLURRIES  28  23  81 SE14      29.94F WCI  17
MINOT          CLOUDY    26  14  60 SE5       30.05F
MINOT AFB      CLOUDY    24  14  64 S9        30.04F WCI  15
BISMARCK       CLOUDY    32  28  85 SE12      30.08S
DICKINSON      LGT SNOW  28  25  88 SE15      29.93F FOG     WCI  16
GARRISON         N/A     30  24  78 SE14      30.04F WCI  19
HETTINGER ARPT LGT SNOW  29  28  96 SE12      29.96F FOG     WCI  19
JAMESTOWN      CLOUDY    31  24  75 SE10      30.11F
CARRINGTON     MOCLDY    30  23  74 SE8       30.13F
HAZEN          CLOUDY    30  28  93 SE10G16   30.06S
MANDAN         CLOUDY    28  28 100 SE13      30.06S WCI  18
OAKES          CLOUDY    30  27  86 SE10      30.14F
RUGBY          CLOUDY    23  12  63 MISG      30.10F
TIOGA          CLOUDY    28  27  93 S13       29.98F FOG     WCI  18
WATFORD CITY   CLOUDY    28  27  93 SE10G16   29.96F FOG     WCI  19
$$

CITY           SKY/WX    TMP DP  RH WIND       PRES   REMARKS
GRAND FORKS    MOCLDY    23  12  62 SE7       30.19F WCI  15
GRAND FORKS AF CLEAR     13   8  83 CALM      30.18F
DEVILS LAKE    MOCLDY    26  16  65 S10       30.13F WCI  16
FARGO          CLOUDY    32  23  69 E7        30.19F
CANDO          CLOUDY    18  12  79 SE8       30.14F WCI   7
CAVALIER       FAIR      16  10  79 CALM      30.19S
GRAFTON        FAIR      16   9  73 SE5       30.22S WCI   9
GWINNER        CLOUDY    32  32 100 SE9       30.16F
LANGDON          N/A     16  12  86 SE9       30.14F WCI   4
ROLLA          CLOUDY    19  10  68 S9        30.11S WCI   9
WALHALLA       MOCLDY    16  10  79 SE7       30.19R WCI   6
$$

CITY           SKY/WX    TMP DP  RH WIND       PRES   REMARKS
ABERDEEN       CLOUDY    34  30  85 E8        30.14F
MOBRIDGE       CLOUDY    34  29  82 SE15      30.04F
BUFFALO          N/A     32  28  85 S15       29.88F
RAPID CITY     LGT RAIN  33  33 100 SE9       29.94F VSB 3/4
GLASGOW        LGT SNOW  29  26  89 E13       29.84F FOG     WCI  19
SIDNEY         MIX PCPN  30  27  88 SE7       29.93F
WOLF POINT     FLURRIES  30  27  88 E8        29.90F
GLENDIVE       FLURRIES  29  29 100 E6        29.89F
MILES CITY     CLOUDY    33  31  92 S9        29.87S
BAKER          FRZ RAIN  32  31  96 S17       29.88F
$$

CITY           SKY/WX    TMP DP  RH WIND       PRES   REMARKS
BILLINGS       LGT SNOW  32  30  92 S14       29.85F FOG
GREAT FALLS    CLOUDY    33  29  85 CALM      29.81R
REGINA         FLURRIES  23  12  63 SE12      29.96F WCI  12
ESTEVAN        CLOUDY    21  14  73 E9        29.99F WCI  11
$$




USA.gov is the U.S. government's official web portal to all federal, state and local government web resources and services.